STARLINK-33678, 63509

Orbit data source: Space-Track

STARLINK-33678, 63509 is a payload satellite owned by SpaceX/Seattle (US) in LEO that was launched on Mon, 07 Apr 2025 UTC via an FALCON 9 launch vehicle from the Air Force Western Test Range (AFWTR). Payload-class satellites include a variety of spacecraft equipped with specific instruments for various scientific and technological missions. These include communications satellites like Starlink; space stations such as the ISS; scientific satellites like the Hubble; Earth observation satellites from companies like Planet Labs, Umbra, and HawkEye 360; GPS; miniature CubeSats for education and research; and military/defense satellites.

Loading next visibility...
Identifier
63509, 2025-071S
Orbit
LEO
Last TLE update
15 hours ago
Origin
Manufacturer
SpaceX/Seattle
Mission
Operational Commercial Communications
Bus & Motor
STARLINK V2MO, Unknown motor
Mass
575 kg wet, ~530 kg dry
Launch date (UTC)
2025-04-07 (3 months ago)
Launch vehicle
FALCON 9
Launch site
Air Force Western Test Range (AFWTR)
Object type
Payload
Rocket body
Debris
Shape & HBR
Box + 1 Pan, 29 m
Radar Cross Section
41.120 m², Large (>1 m²)

Expand to show TLE details & history

TLE from 15 hours ago
0 STARLINK-33678
1 63509U 25071S   25189.70281776  .00003316  00000-0  12413-3 0  9998
2 63509  53.1554 193.2366 0001097  86.1738 273.9389 15.30176505 15143
Epoch: 2025-07-08T16:52Z
TLE epoch observation values (Epoch: 2025-07-08T16:52:03.454Z)
Latitude
0.00005°
Longitude
13.32824°
Altitude
476.133 km
Speed
7.629 km/s
True Right ascension
12h 52m 56s
True Declination
0° 00' 00"
Sunlit
Object was in daylight at epoch
Visualization orbit readout
Latitude
-50.20364°
Longitude
-53.08985°
Altitude
493.315 km
Speed
7.618 km/s
Apparent Right ascension
08h 25m 03s
Apparent Declination
-45° 04' 11"
Sunlit
Object is in daylight
Visualization observer readout
Local Sidereal Time
20:23:03
Azimuth
183.925° SSW
Elevation
-84.833°
Doppler factor
1
Orbital elements
Apogee altitude
476.294 km
Perigee altitude
474.791 km
Semi-major axis
6,853.679 km
Eccentricity
0.00011
Inclination
53.1554°
RAAN
193.2366°
Arg. of periapsis
86.1738°
True anomaly
Unknown
Mean anomaly
273.9389°
Eccentric anomaly
Unknown
Mean motion
3.82523 °/min
Orbital period
94.11 mins
BSTAR
0.00012413
Loading maneuver chart data...
Loading SW <> Apogee altitude chart data...
Loading historical data...
Loading historical data...
Loading historical data...
Loading historical data...
Loading historical data...
Loading historical data...
Loading historical data...

STARLINK-33678 Visibility forecast

Observer location: undefined°, undefined°

Span
Click to sort rows by Start time (UTC) header in descending order
Start Az.
Max El. time (UTC)
Max El. Az.
Max El.
End time (UTC)
End Az.
6 mins2025-07-09 09:00:25.458Z326.613° NNW2025-07-09 09:03:25.458Z26.293° NE28.612°2025-07-09 09:06:25.458Z93.877° ESE
5 mins2025-07-09 10:39:25.458Z278.488° WNW2025-07-09 10:41:25.458Z228.094° WSW27.192°2025-07-09 10:44:25.458Z166.879° S
5 mins2025-07-10 01:57:25.458Z177.799° S2025-07-10 01:59:25.458Z126.685° SE25.702°2025-07-10 02:02:25.458Z70.864° E
5 mins2025-07-10 03:35:25.458Z278.456° WNW2025-07-10 03:37:25.458Z340.32° N29.326°2025-07-10 03:40:25.458Z35.288° NE
|